Location: Quorle
(43.7167°N, 11.7000°E)
Time: 12:45:21
(UTC+00:00)

Daily predictions for brighter satellites

Satellite Brightness Start Highest point End
(mag) Time Altitude Azimuth Time Altitude Azimuth Time Altitude Azimuth
Cosmos 1943 Rocket 2.2 18:02:16 10° NNW 18:07:48 64° ENE 18:13:20 10° SE
CSL-04 Debris 4.5 18:02:37 10° S 18:08:05 76° WSW 18:13:35 10° NNW
Cosmos 2369 Rocket 2.5 18:03:50 10° NNW 18:09:24 51° ENE 18:14:53 10° SE
STARLINK-1144 3.9 18:08:29 10° WNW 18:12:37 69° SW 18:16:43 10° SE
Cosmos 2084 Rocket 3.7 18:10:13 10° NW 18:14:42 79° SW 18:19:09 10° SSE
Cosmos 1758 Rocket 4.5 18:12:02 10° NNE 18:15:48 28° ENE 18:19:31 10° SE
Abrixas rocket 3.3 18:14:05 10° W 18:16:51 35° N 18:19:37 10° ENE
STARLINK-1103 4.0 18:13:27 10° WNW 18:17:33 63° SW 18:21:39 10° SE
Cosmos 1953 2.6 18:17:07 10° SSE 18:20:54 45° E 18:24:43 10° NNE
Cosmos 1992 Rocket 4.1 18:16:44 10° NNW 18:21:54 60° ENE 18:27:02 10° SSE
Cosmos 2228 4.2 18:18:52 10° SE 18:22:13 22° E 18:25:34 10° NE
STARLINK-1101 4.1 18:18:29 10° WNW 18:22:33 57° SW 18:26:37 10° SE
Cosmos 1437 3.8 18:20:40 10° NNE 18:23:12 23° ENE 18:25:41 10° SE
Cosmos 1818 3.9 18:19:16 10° S 18:24:20 42° ESE 18:29:26 10° NE
STARLINK-1102 4.3 18:23:27 10° WNW 18:27:29 52° SW 18:31:30 10° SE
Cosmos 2263 4.4 18:23:54 10° NNW 18:29:24 53° ENE 18:34:52 10° SE
Meteor 2-15 Rocket 4.4 18:24:21 10° S 18:30:25 77° E 18:36:30 10° NNE
Cosmos 1470 3.4 18:27:14 10° SSW 18:31:04 60° W 18:34:57 10° N
STARLINK-1111 4.4 18:28:27 10° WNW 18:32:27 48° SW 18:36:25 10° SSE
Cosmos 1943 3.3 18:27:21 10° S 18:32:50 56° ESE 18:38:23 10° NNE
SL-08 RB Rocket 4.3 18:28:53 10° SE 18:33:04 38° ENE 18:37:19 10° N
ARGOS Delta rocket 4.2 18:28:53 10° SSE 18:34:08 89° ENE 18:39:38 10° N
CZ-2C R/B 2.9 18:32:44 10° SSE 18:37:36 64° ENE 18:42:20 10° N
Aureole 2 Rocket 2.6 18:34:34 10° NNW 18:38:03 73° WSW 18:41:25 10° SSE
BREEZE-M DEB (TANK) 2.6 18:31:29 10° WSW 18:38:17 73° NNW 18:40:52 10° ENE
H-2A R/B 2.0 18:42:05 10° SSE 18:47:21 88° E 18:52:29 10° NNW
NOSS 3-4 (A) 4.3 18:46:42 10° NNW 18:53:23 47° NE 18:58:54 18° ESE
NOSS 3-4 (C) 4.3 18:46:49 10° NNW 18:53:29 47° NE 18:58:59 18° ESE
Cosmos 1656 Rocket 3.8 18:49:49 10° NNW 18:55:24 57° ENE 18:59:39 17° SE
Resurs 1-3 4.1 18:55:38 18° SE 18:58:29 41° ENE 19:02:36 10° N
CZ-2C R/B 3.1 18:54:04 10° NNE 18:58:47 35° E 19:03:30 10° SSE
Aureole 1 Rocket 4.4 18:51:19 10° S 18:58:48 50° ESE 19:04:53 10° NNE
NOSS 3-3 (A) 4.3 18:55:17 10° SW 19:01:06 67° NW 19:07:42 10° NNE
MetOp-A 4.3 18:56:24 13° SE 19:01:07 55° ENE 19:06:21 10° N
NOSS 3-3 (C) 4.3 18:55:23 10° SW 19:01:12 68° NW 19:07:47 10° NNE
Cosmos 1726 2.2 18:57:44 10° S 19:01:28 80° W 19:05:14 10° N
Cosmos 2251 Rocket 4.3 18:56:22 10° SW 19:01:37 57° WNW 19:06:57 10° NNE
ARGOS 3.2 18:57:43 10° SSE 19:03:07 81° WSW 19:08:32 10° NNW
SJ-6B 3.0 19:02:34 10° S 19:06:40 81° WSW 19:10:50 10° NNW
STARLINK-60 3.2 19:03:42 10° SSW 19:06:51 46° SE 19:07:54 32° E
Cosmos 2184 Rocket 4.0 19:01:08 10° N 19:07:28 87° E 19:13:41 10° S
ISS -2.0 19:05:29 10° WNW 19:08:20 26° SW 19:10:16 16° S
BREEZE M DEB (TANK) 3.3 19:07:14 10° SSW 19:09:56 30° SE 19:15:48 10° ENE
Meteor 2-10 4.3 19:04:54 10° SSW 19:10:19 76° WNW 19:15:58 10° N
USA 186 3.0 19:08:33 10° S 19:11:46 42° W 19:14:53 10° NNW
STARLINK-67 4.4 19:12:22 10° NNW 19:14:20 19° NNE 19:14:43 18° NNE
DMSP B5D2-2 4.1 19:10:54 10° NNE 19:16:04 59° E 19:21:13 10° S
Cosmos 2058 Rocket 3.2 19:16:34 18° SSE 19:19:41 51° E 19:24:04 10° NNE
Ariane Rocket 4.3 19:15:43 10° SSW 19:20:26 39° W 19:25:11 10° NNW
Resurs 01 Rocket 1.8 19:21:42 33° SE 19:23:20 52° ENE 19:27:37 10° N
MOS 1 Rocket 3.6 19:18:34 10° NNE 19:23:55 64° E 19:29:18 10° S
USA 234 3.3 19:18:40 10° ENE 19:25:01 52° SE 19:31:21 10° SSW
ATLAS 2AS CENTAUR R/B 2.8 19:18:23 10° NW 19:26:01 73° NE 19:29:59 28° SE
Cosmos 1190 Rocket 4.0 19:24:17 10° S 19:29:30 62° ESE 19:34:44 10° NNE
Cosmos 2154 Rocket 4.0 19:23:20 10° N 19:29:44 83° E 19:34:52 16° S
Nadezhda 1 Rocket 4.0 19:24:07 10° S 19:30:31 90° WNW 19:36:56 10° N
Cosmos 1140 Rocket 3.5 19:25:48 10° S 19:30:51 55° ESE 19:35:55 10° NNE
SL-4 R/B 2.0 19:28:53 10° WSW 19:32:14 60° NNW 19:33:43 30° NE
Spot 2 Rocket 4.2 19:31:32 33° E 19:32:38 37° ENE 19:37:18 10° N
Cosmos 1726 Rocket 3.7 19:28:40 10° SSW 19:33:03 73° W 19:37:31 10° N
Cosmos 1340 Rocket 2.7 19:32:48 29° S 19:34:48 74° E 19:38:51 10° NNE
ATLAS 5 CENTAUR R/B 1.4 19:32:51 10° SSW 19:36:54 60° ESE 19:41:23 10° NE
SL-24 R/B - RUBIN 2 4.1 19:34:54 10° SSW 19:40:22 77° ESE 19:46:37 10° NE
Cosmos 1328 4.4 19:37:05 10° NNW 19:41:00 54° W 19:43:15 23° SSW
Cosmos 1703 4.3 19:42:35 10° NNW 19:46:22 44° W 19:48:40 21° SSW
Cosmos 614 Rocket 4.3 19:42:42 10° SSW 19:47:53 65° WNW 19:53:06 10° NNE
Cosmos 2366 rocket 4.5 19:42:51 10° N 19:48:33 38° ENE 19:49:24 37° E
Cosmos 1300 3.6 19:50:48 37° NE 19:50:48 37° NE 19:53:19 10° NNE
SPOT 3 Rocket 4.3 19:45:41 15° S 19:49:52 52° W 19:54:57 10° NNW
Abrixas rocket 3.6 19:50:06 10° WNW 19:52:19 31° NNW 19:52:19 31° NNW
Cosmos 2369 Rocket 4.2 19:48:33 10° NW 19:53:03 25° WSW 19:57:31 10° SSW
COSMOS 2455 3.0 19:49:14 10° NNW 19:55:11 60° NE 19:56:39 47° ESE
Cosmos 921 Rocket 2.8 19:53:04 10° NNW 19:57:12 76° ENE 19:57:12 76° ENE
Cosmos 676 Rocket 3.9 19:56:21 46° SSE 19:57:48 66° ESE 20:03:02 10° NNE
Cosmos 407 Rocket 3.9 19:54:10 10° SSW 19:59:16 62° WNW 20:04:22 10° NNE
ERS-1 Rocket 3.7 20:07:39 37° NE 20:07:39 37° NE 20:11:48 10° N
Landsat 7 4.0 20:11:38 57° NE 20:11:38 57° NE 20:15:56 10° N
SPOT 1/Viking Rocket 3.7 20:14:31 57° ENE 20:14:31 57° ENE 20:19:30 10° N
MetOp-B 4.1 20:15:08 61° S 20:16:06 81° WSW 20:21:30 10° NNW
Cosmos 1461 3.3 20:15:36 10° NW 20:19:51 69° W 20:19:51 69° W
Cosmos 1954 Rocket 4.0 20:21:02 51° SSW 20:22:21 80° WNW 20:27:37 10° NNE
CZ-4C R/B 4.3 20:28:42 10° NNW 20:34:12 25° NNE 20:37:07 20° ENE
SPOT 5 4.0 20:36:47 31° NNE 20:36:47 31° NNE 20:39:15 10° N
Cosmos 1697 Rocket 4.2 20:31:10 10° N 20:35:27 25° NE 20:35:27 25° NE
CZ-2C R/B 4.3 20:34:30 10° N 20:38:59 31° WNW 20:43:29 10° SW
Cosmos 2058 4.5 20:42:01 10° NNW 20:44:18 32° NNW 20:44:18 32° NNW
Cosmos 1763 Rocket 4.3 20:45:48 10° NNW 20:49:35 45° N 20:49:35 45° N
Terra 3.1 20:55:01 35° N 20:55:01 35° N 20:57:51 10° N
Resurs 01 Rocket 4.1 20:59:16 15° WSW 21:00:07 15° W 21:02:46 10° NW
Cosmos 2218 Rocket 4.4 20:55:53 10° NNW 21:01:56 56° W 21:02:26 55° WSW
Cosmos 1980 Rocket 3.9 20:59:37 10° N 21:03:10 22° NE 21:03:10 22° NE
USA 234 3.8 21:01:42 10° NE 21:08:03 55° NNW 21:14:24 10° WSW
Cosmos 1656 4.4 21:06:23 10° NNW 21:10:37 50° N 21:10:37 50° N
ATLAS 2AS CENTAUR R/B 4.2 21:10:26 10° NW 21:16:13 26° WSW 21:17:26 24° WSW
ATLAS 5 CENTAUR R/B 4.0 21:18:39 10° W 21:21:59 21° NW 21:25:39 10° NNE
Mayak 1.7 21:30:24 10° NNE 21:30:35 11° NNE 21:30:35 11° NNE
Cosmos 1697 Rocket 4.5 22:14:36 10° NNW 22:17:11 27° NW 22:17:11 27° NW
CZ-4C R/B 3.4 22:16:42 10° NW 22:22:18 57° N 22:22:18 57° N
SL-16 R/B 4.1 22:29:34 10° N 22:32:21 25° NNE 22:32:21 25° NNE
Cosmos 2360 Rocket 4.4 22:36:46 10° N 22:39:34 18° NNE 22:39:34 18° NNE
Cosmos 2322 Rocket 4.2 22:39:28 10° N 22:42:08 24° N 22:42:08 24° N
Cosmos 1980 Rocket 4.2 22:42:56 10° NNW 22:44:56 23° NW 22:44:56 23° NW
Cosmos 2082 Rocket 4.2 23:15:18 24° NNW 23:15:18 24° NNW 23:18:02 10° N
Cosmos 2344 4.4 23:09:20 10° NW 23:18:38 71° W 23:18:38 71° W
SL-16 R/B 4.4 23:29:18 22° ENE 23:29:18 22° ENE 23:33:50 10° N
Cosmos 2219 Rocket 4.3 23:36:31 10° N 23:40:11 20° NE 23:40:11 20° NE
